| time (UTC) | temp F | wind direction | speed MPH | gust MPH | rain 1hr in | rain 24hr in | rain mn in | humidity % | barometer mb |
| 20260502170346 | 60 | 157 | 3.0 | 13.0 | 0.00 | 0.00 | 0.00 | 53 | 1031.1 |
| 20260502163744 | 59 | 138 | 3.0 | 10.0 | 0.00 | 0.00 | 0.00 | 57 | 1031.4 |
| 20260502163007 | 58 | 138 | 4.0 | 10.0 | 0.00 | 0.00 | 0.00 | 55 | 1031.4 |
| 20260502162702 | 58 | 135 | 4.0 | 10.0 | 0.00 | 0.00 | 0.00 | 57 | 1031.5 |
| 20260502161932 | 58 | 131 | 3.0 | 8.0 | 0.00 | 0.00 | 0.00 | 58 | 1031.4 |
| 20260502161635 | 58 | 129 | 3.0 | 7.0 | 0.00 | 0.00 | 0.00 | 59 | 1031.4 |
| 20260502160437 | 56 | 129 | 3.0 | 8.0 | 0.00 | 0.00 | 0.00 | 63 | 1031.4 |
| 20260502160136 | 56 | 129 | 4.0 | 8.0 | 0.00 | 0.00 | 0.00 | 63 | 1031.5 |
| 20260502152313 | 53 | 107 | 3.0 | 9.0 | 0.00 | 0.00 | 0.00 | 74 | 1031.6 |
| 20260502152012 | 53 | 107 | 4.0 | 9.0 | 0.00 | 0.00 | 0.00 | 74 | 1031.7 |
| 20260502151711 | 53 | 107 | 3.0 | 9.0 | 0.00 | 0.00 | 0.00 | 75 | 1031.7 |
| 20260502150931 | 51 | 107 | 4.0 | 8.0 | 0.00 | 0.00 | 0.00 | 77 | 1031.7 |
| 20260502150621 | 51 | 107 | 4.0 | 9.0 | 0.00 | 0.00 | 0.00 | 78 | 1031.7 |
| 20260502150318 | 51 | 106 | 4.0 | 9.0 | 0.00 | 0.00 | 0.00 | 79 | 1031.7 |
| 20260502140114 | 47 | 97 | 2.0 | 5.0 | 0.00 | 0.00 | 0.00 | 91 | 1031.7 |
| 20260502130620 | 40 | 97 | 5.0 | 8.0 | 0.00 | 0.00 | 0.00 | 91 | 1031.5 |
| 20260502130317 | 40 | 98 | 5.0 | 8.0 | 0.00 | 0.00 | 0.00 | 91 | 1031.4 |
| 20260502123726 | 36 | 100 | 4.0 | 6.0 | 0.00 | 0.00 | 0.00 | 91 | 1031.1 |
| 20260502123414 | 35 | 100 | 4.0 | 6.0 | 0.00 | 0.00 | 0.00 | 91 | 1031.1 |
| 20260502123118 | 35 | 100 | 3.0 | 6.0 | 0.00 | 0.00 | 0.00 | 90 | 1031.0 |
| 20260502122806 | 35 | 100 | 3.0 | 5.0 | 0.00 | 0.00 | 0.00 | 90 | 1031.0 |
| 20260502122507 | 34 | 100 | 3.0 | 5.0 | 0.00 | 0.00 | 0.00 | 90 | 1030.9 |
| 20260502122201 | 34 | 100 | 3.0 | 5.0 | 0.00 | 0.00 | 0.00 | 90 | 1030.8 |
| 20260502121901 | 34 | 100 | 3.0 | 5.0 | 0.00 | 0.00 | 0.00 | 90 | 1030.8 |
| 20260502121600 | 34 | 100 | 3.0 | 6.0 | 0.00 | 0.00 | 0.00 | 89 | 1030.7 |
| 20260502121258 | 34 | 100 | 3.0 | 6.0 | 0.00 | 0.00 | 0.00 | 90 | 1030.7 |
| 20260502120954 | 34 | 100 | 3.0 | 6.0 | 0.00 | 0.00 | 0.00 | 90 | 1030.7 |
| 20260502120641 | 34 | 100 | 3.0 | 6.0 | 0.00 | 0.00 | 0.00 | 89 | 1030.7 |
| 20260502115909 | 33 | 100 | 3.0 | 6.0 | 0.00 | 0.00 | 0.00 | 89 | 1030.8 |
| 20260502115610 | 33 | 100 | 3.0 | 6.0 | 0.00 | 0.00 | 0.00 | 89 | 1030.6 |
| 20260502114849 | 33 | 100 | 2.0 | 6.0 | 0.00 | 0.00 | 0.00 | 89 | 1030.5 |
| 20260502114545 | 33 | 100 | 2.0 | 5.0 | 0.00 | 0.00 | 0.00 | 89 | 1030.7 |
| 20260502114236 | 33 | 100 | 2.0 | 5.0 | 0.00 | 0.00 | 0.00 | 89 | 1030.5 |
| 20260502113932 | 33 | 100 | 3.0 | 5.0 | 0.00 | 0.00 | 0.00 | 89 | 1030.6 |
| 20260502113634 | 33 | 100 | 2.0 | 5.0 | 0.00 | 0.00 | 0.00 | 89 | 1030.5 |
| 20260502113338 | 34 | 100 | 2.0 | 5.0 | 0.00 | 0.00 | 0.00 | 89 | 1030.5 |
| 20260502113028 | 34 | 100 | 2.0 | 5.0 | 0.00 | 0.00 | 0.00 | 89 | 1030.6 |
| 20260502112309 | 34 | 100 | 2.0 | 5.0 | 0.00 | 0.00 | 0.00 | 89 | 1030.4 |
| 20260502112001 | 34 | 100 | 3.0 | 6.0 | 0.00 | 0.00 | 0.00 | 89 | 1030.5 |
| 20260502111240 | 34 | 100 | 4.0 | 6.0 | 0.00 | 0.00 | 0.00 | 89 | 1030.4 |
| 20260502110929 | 34 | 100 | 4.0 | 6.0 | 0.00 | 0.00 | 0.00 | 89 | 1030.4 |
| 20260502110627 | 34 | 100 | 3.0 | 6.0 | 0.00 | 0.00 | 0.00 | 88 | 1030.4 |
| 20260502110315 | 34 | 100 | 3.0 | 6.0 | 0.00 | 0.00 | 0.00 | 88 | 1030.6 |
| 20260502105555 | 34 | 100 | 3.0 | 7.0 | 0.00 | 0.00 | 0.00 | 88 | 1030.3 |
| 20260502105256 | 34 | 100 | 2.0 | 7.0 | 0.00 | 0.00 | 0.00 | 88 | 1030.4 |
| 20260502104944 | 34 | 100 | 2.0 | 7.0 | 0.00 | 0.00 | 0.00 | 88 | 1030.3 |
| 20260502104220 | 34 | 100 | 3.0 | 7.0 | 0.00 | 0.00 | 0.00 | 88 | 1030.1 |
| 20260502103453 | 34 | 101 | 2.0 | 6.0 | 0.00 | 0.00 | 0.00 | 88 | 1029.9 |
| 20260502102733 | 34 | 101 | 3.0 | 8.0 | 0.00 | 0.00 | 0.00 | 88 | 1030.1 |
| 20260502102434 | 34 | 101 | 3.0 | 8.0 | 0.00 | 0.00 | 0.00 | 88 | 1030.2 |
| 20260502102121 | 34 | 101 | 3.0 | 8.0 | 0.00 | 0.00 | 0.00 | 88 | 1029.9 |
| 20260502101821 | 34 | 101 | 3.0 | 8.0 | 0.00 | 0.00 | 0.00 | 88 | 1029.7 |
| 20260502101219 | 34 | 102 | 2.0 | 6.0 | 0.00 | 0.00 | 0.00 | 88 | 1029.9 |
| 20260502100916 | 34 | 102 | 2.0 | 6.0 | 0.00 | 0.00 | 0.00 | 88 | 1029.7 |
| 20260502100605 | 34 | 102 | 3.0 | 6.0 | 0.00 | 0.00 | 0.00 | 88 | 1029.8 |
| 20260502091448 | 33 | 102 | 2.0 | 5.0 | 0.00 | 0.00 | 0.00 | 87 | 1029.3 |
| 20260502091142 | 33 | 102 | 1.0 | 5.0 | 0.00 | 0.00 | 0.00 | 87 | 1029.0 |
| 20260502090840 | 32 | 102 | 1.0 | 5.0 | 0.00 | 0.00 | 0.00 | 86 | 1028.8 |
| 20260502090526 | 33 | 102 | 0.0 | 5.0 | 0.00 | 0.00 | 0.00 | 85 | 1028.8 |
| 20260502090225 | 33 | 102 | 0.0 | 3.0 | 0.00 | 0.00 | 0.00 | 85 | 1028.7 |
| 20260502070707 | 37 | 102 | 1.0 | 3.0 | 0.00 | 0.00 | 0.00 | 83 | 1028.8 |
| 20260502070359 | 38 | 102 | 1.0 | 3.0 | 0.00 | 0.00 | 0.00 | 83 | 1028.9 |
| 20260502070057 | 38 | 102 | 1.0 | 3.0 | 0.00 | 0.00 | 0.00 | 83 | 1028.9 |
| 20260502065757 | 38 | 102 | 1.0 | 3.0 | 0.00 | 0.00 | 0.00 | 83 | 1028.7 |
| 20260502065021 | 38 | 102 | 0.0 | 3.0 | 0.00 | 0.00 | 0.00 | 83 | 1028.8 |
| 20260502064720 | 38 | 102 | 1.0 | 3.0 | 0.00 | 0.00 | 0.00 | 83 | 1028.7 |
| 20260502064411 | 38 | 102 | 1.0 | 3.0 | 0.00 | 0.00 | 0.00 | 82 | 1028.8 |
| 20260502064109 | 38 | 102 | 1.0 | 3.0 | 0.00 | 0.00 | 0.00 | 82 | 1028.9 |
| 20260502063810 | 38 | 102 | 1.0 | 5.0 | 0.00 | 0.00 | 0.00 | 82 | 1028.9 |
| 20260502063458 | 38 | 102 | 2.0 | 5.0 | 0.00 | 0.00 | 0.00 | 82 | 1029.0 |
| 20260502063152 | 38 | 102 | 2.0 | 5.0 | 0.00 | 0.00 | 0.00 | 82 | 1029.0 |
| 20260502062849 | 38 | 102 | 2.0 | 5.0 | 0.00 | 0.00 | 0.00 | 82 | 1029.0 |
| 20260502062553 | 38 | 102 | 2.0 | 5.0 | 0.00 | 0.00 | 0.00 | 81 | 1029.0 |
| 20260502061359 | 39 | 102 | 1.0 | 4.0 | 0.00 | 0.00 | 0.00 | 80 | 1029.0 |
| 20260502061057 | 39 | 102 | 1.0 | 3.0 | 0.00 | 0.00 | 0.00 | 80 | 1029.0 |
| 20260502060746 | 39 | 102 | 1.0 | 3.0 | 0.00 | 0.00 | 0.00 | 80 | 1029.0 |
| 20260502060443 | 39 | 102 | 1.0 | 3.0 | 0.00 | 0.00 | 0.00 | 80 | 1029.0 |
| 20260502060130 | 39 | 102 | 0.0 | 3.0 | 0.00 | 0.00 | 0.00 | 79 | 1029.0 |
| 20260502055822 | 39 | 102 | 1.0 | 3.0 | 0.00 | 0.00 | 0.00 | 79 | 1029.0 |
| 20260502055520 | 39 | 102 | 1.0 | 3.0 | 0.00 | 0.00 | 0.00 | 79 | 1028.9 |
| 20260502055214 | 39 | 102 | 1.0 | 3.0 | 0.00 | 0.00 | 0.00 | 79 | 1028.9 |
| 20260502054909 | 40 | 102 | 1.0 | 3.0 | 0.00 | 0.00 | 0.00 | 78 | 1028.8 |
| 20260502054556 | 40 | 102 | 0.0 | 2.0 | 0.00 | 0.00 | 0.00 | 78 | 1028.8 |
| 20260502054250 | 40 | 102 | 0.0 | 1.0 | 0.00 | 0.00 | 0.00 | 77 | 1028.8 |
| 20260502053943 | 40 | 102 | 0.0 | 0.0 | 0.00 | 0.00 | 0.00 | 77 | 1028.9 |
| 20260502053629 | 40 | 102 | 0.0 | 1.0 | 0.00 | 0.00 | 0.00 | 77 | 1028.9 |
| 20260502052900 | 41 | 102 | 0.0 | 1.0 | 0.00 | 0.00 | 0.00 | 76 | 1028.8 |
| 20260502052546 | 42 | 102 | 0.0 | 0.0 | 0.00 | 0.00 | 0.00 | 75 | 1028.8 |
| 20260502051355 | 43 | 102 | 0.0 | 0.0 | 0.00 | 0.00 | 0.00 | 76 | 1028.5 |
| 20260502050626 | 44 | 102 | 0.0 | 0.0 | 0.00 | 0.00 | 0.00 | 75 | 1028.4 |
| 20260502050316 | 44 | 102 | 0.0 | 3.0 | 0.00 | 0.00 | 0.00 | 76 | 1028.4 |
| 20260502050008 | 45 | 102 | 0.0 | 3.0 | 0.00 | 0.00 | 0.00 | 75 | 1028.4 |
| 20260502045704 | 45 | 102 | 1.0 | 3.0 | 0.00 | 0.00 | 0.00 | 75 | 1028.4 |
| 20260502045352 | 45 | 102 | 1.0 | 3.0 | 0.00 | 0.00 | 0.00 | 75 | 1028.4 |
| 20260502045052 | 45 | 102 | 1.0 | 3.0 | 0.00 | 0.00 | 0.00 | 75 | 1028.4 |
| 20260502044338 | 46 | 102 | 3.0 | 9.0 | 0.00 | 0.00 | 0.00 | 75 | 1028.5 |
| 20260502044035 | 46 | 102 | 5.0 | 9.0 | 0.00 | 0.00 | 0.00 | 75 | 1028.4 |
| 20260502043736 | 46 | 102 | 5.0 | 9.0 | 0.00 | 0.00 | 0.00 | 75 | 1028.4 |
| 20260502043439 | 46 | 102 | 6.0 | 9.0 | 0.00 | 0.00 | 0.00 | 75 | 1028.3 |
| 20260502043135 | 47 | 101 | 6.0 | 9.0 | 0.00 | 0.00 | 0.00 | 74 | 1028.3 |
| 20260502042404 | 47 | 101 | 6.0 | 10.0 | 0.00 | 0.00 | 0.00 | 74 | 1028.3 |
| 20260502042103 | 47 | 101 | 6.0 | 10.0 | 0.00 | 0.00 | 0.00 | 73 | 1028.3 |
| 20260502041755 | 47 | 101 | 6.0 | 10.0 | 0.00 | 0.00 | 0.00 | 73 | 1028.2 |
| 20260502041452 | 47 | 100 | 6.0 | 12.0 | 0.00 | 0.00 | 0.00 | 73 | 1028.3 |
| 20260502041149 | 47 | 100 | 7.0 | 12.0 | 0.00 | 0.00 | 0.00 | 72 | 1028.4 |
| 20260502040849 | 47 | 99 | 7.0 | 12.0 | 0.00 | 0.00 | 0.00 | 72 | 1028.3 |
| 20260502040549 | 48 | 96 | 7.0 | 12.0 | 0.00 | 0.00 | 0.00 | 72 | 1028.3 |
| 20260502040246 | 48 | 96 | 7.0 | 12.0 | 0.00 | 0.00 | 0.00 | 71 | 1028.3 |
| 20260502035937 | 48 | 96 | 7.0 | 12.0 | 0.00 | 0.00 | 0.00 | 71 | 1028.2 |
| 20260502035629 | 48 | 91 | 7.0 | 11.0 | 0.00 | 0.00 | 0.00 | 70 | 1028.2 |
| 20260502033155 | 47 | 335 | 5.0 | 9.0 | 0.00 | 0.00 | 0.00 | 68 | 1027.9 |
| 20260502032842 | 46 | 326 | 4.0 | 9.0 | 0.00 | 0.00 | 0.00 | 68 | 1027.9 |
| 20260502032109 | 43 | 319 | 1.0 | 8.0 | 0.00 | 0.00 | 0.00 | 69 | 1027.7 |
| 20260502031800 | 42 | 319 | 0.0 | 4.0 | 0.00 | 0.00 | 0.00 | 68 | 1027.6 |
| 20260502031456 | 42 | 319 | 0.0 | 0.0 | 0.00 | 0.00 | 0.00 | 67 | 1027.4 |
| 20260502031147 | 42 | 319 | 0.0 | 1.0 | 0.00 | 0.00 | 0.00 | 67 | 1027.2 |
| 20260502030427 | 42 | 319 | 0.0 | 1.0 | 0.00 | 0.00 | 0.00 | 65 | 1027.1 |
| 20260502025705 | 43 | 319 | 0.0 | 3.0 | 0.00 | 0.00 | 0.00 | 61 | 1027.0 |
| 20260502025400 | 43 | 319 | 0.0 | 3.0 | 0.00 | 0.00 | 0.00 | 60 | 1027.0 |
| 20260502025051 | 44 | 319 | 0.0 | 3.0 | 0.00 | 0.00 | 0.00 | 59 | 1027.0 |
| 20260502024747 | 45 | 319 | 0.0 | 3.0 | 0.00 | 0.00 | 0.00 | 58 | 1027.0 |
| 20260502024440 | 45 | 319 | 0.0 | 3.0 | 0.00 | 0.00 | 0.00 | 57 | 1026.9 |
| 20260502024129 | 46 | 319 | 0.0 | 2.0 | 0.00 | 0.00 | 0.00 | 56 | 1026.9 |
| 20260502023818 | 46 | 319 | 0.0 | 1.0 | 0.00 | 0.00 | 0.00 | 55 | 1026.8 |
| 20260502023514 | 47 | 319 | 0.0 | 1.0 | 0.00 | 0.00 | 0.00 | 54 | 1026.8 |
| 20260502023214 | 48 | 319 | 0.0 | 1.0 | 0.00 | 0.00 | 0.00 | 53 | 1026.8 |
| 20260502022912 | 48 | 319 | 0.0 | 0.0 | 0.00 | 0.00 | 0.00 | 52 | 1026.7 |
| 20260502022615 | 49 | 319 | 0.0 | 0.0 | 0.00 | 0.00 | 0.00 | 51 | 1026.7 |
| 20260502022308 | 50 | 319 | 0.0 | 0.0 | 0.00 | 0.00 | 0.00 | 50 | 1026.7 |
| 20260502022004 | 51 | 319 | 0.0 | 0.0 | 0.00 | 0.00 | 0.00 | 49 | 1026.6 |
| 20260502021250 | 52 | 319 | 0.0 | 0.0 | 0.00 | 0.00 | 0.00 | 47 | 1026.6 |
| 20260502020944 | 53 | 319 | 0.0 | 0.0 | 0.00 | 0.00 | 0.00 | 45 | 1026.5 |
| 20260502020639 | 54 | 319 | 0.0 | 0.0 | 0.00 | 0.00 | 0.00 | 45 | 1026.4 |
| 20260502020335 | 54 | 319 | 0.0 | 0.0 | 0.00 | 0.00 | 0.00 | 44 | 1026.4 |
| 20260502020021 | 54 | 319 | 0.0 | 0.0 | 0.00 | 0.00 | 0.00 | 43 | 1026.2 |
| 20260502015243 | 55 | 319 | 0.0 | 0.0 | 0.00 | 0.00 | 0.00 | 42 | 1026.2 |
| 20260502014942 | 56 | 319 | 0.0 | 2.0 | 0.00 | 0.00 | 0.00 | 42 | 1026.2 |
| 20260502014639 | 56 | 319 | 0.0 | 3.0 | 0.00 | 0.00 | 0.00 | 41 | 1026.2 |
| 20260502013454 | 57 | 319 | 1.0 | 3.0 | 0.00 | 0.00 | 0.00 | 40 | 1026.1 |
| 20260502013154 | 58 | 319 | 1.0 | 3.0 | 0.00 | 0.00 | 0.00 | 40 | 1026.2 |
| 20260502012849 | 58 | 319 | 1.0 | 3.0 | 0.00 | 0.00 | 0.00 | 40 | 1026.2 |
| 20260502012550 | 59 | 319 | 1.0 | 4.0 | 0.00 | 0.00 | 0.00 | 40 | 1026.1 |
| 20260502012244 | 59 | 319 | 1.0 | 4.0 | 0.00 | 0.00 | 0.00 | 39 | 1026.1 |
| 20260502011935 | 60 | 319 | 1.0 | 4.0 | 0.00 | 0.00 | 0.00 | 38 | 1026.1 |
| 20260502011217 | 61 | 319 | 1.0 | 4.0 | 0.00 | 0.00 | 0.00 | 36 | 1026.2 |
| 20260502010910 | 61 | 319 | 1.0 | 4.0 | 0.00 | 0.00 | 0.00 | 35 | 1026.1 |
| 20260502010602 | 62 | 319 | 1.0 | 6.0 | 0.00 | 0.00 | 0.00 | 35 | 1026.1 |
| 20260502010258 | 62 | 319 | 2.0 | 6.0 | 0.00 | 0.00 | 0.00 | 34 | 1026.1 |
| 20260502005952 | 63 | 319 | 3.0 | 6.0 | 0.00 | 0.00 | 0.00 | 33 | 1026.1 |
| 20260502005236 | 63 | 319 | 4.0 | 10.0 | 0.00 | 0.00 | 0.00 | 33 | 1026.1 |
| 20260502004924 | 63 | 319 | 5.0 | 10.0 | 0.00 | 0.00 | 0.00 | 32 | 1026.1 |
| 20260502004623 | 63 | 319 | 5.0 | 10.0 | 0.00 | 0.00 | 0.00 | 30 | 1026.1 |
| 20260502004310 | 64 | 319 | 5.0 | 10.0 | 0.00 | 0.00 | 0.00 | 30 | 1026.1 |
| 20260502004009 | 64 | 319 | 4.0 | 10.0 | 0.00 | 0.00 | 0.00 | 30 | 1026.0 |
| 20260502003243 | 64 | 308 | 5.0 | 9.0 | 0.00 | 0.00 | 0.00 | 30 | 1026.2 |
| 20260502002946 | 65 | 308 | 5.0 | 9.0 | 0.00 | 0.00 | 0.00 | 30 | 1026.1 |
| 20260502002644 | 65 | 308 | 6.0 | 9.0 | 0.00 | 0.00 | 0.00 | 29 | 1026.2 |
| 20260502002334 | 65 | 307 | 6.0 | 11.0 | 0.00 | 0.00 | 0.00 | 29 | 1026.1 |
| 20260502002030 | 65 | 304 | 5.0 | 11.0 | 0.00 | 0.00 | 0.00 | 29 | 1026.2 |
| 20260502001300 | 65 | 293 | 5.0 | 13.0 | 0.00 | 0.00 | 0.00 | 28 | 1026.1 |
| 20260502000956 | 65 | 293 | 6.0 | 13.0 | 0.00 | 0.00 | 0.00 | 27 | 1026.1 |
| 20260502000643 | 65 | 293 | 6.0 | 13.0 | 0.00 | 0.00 | 0.00 | 27 | 1026.1 |
| 20260502000333 | 66 | 293 | 6.0 | 13.0 | 0.00 | 0.00 | 0.00 | 27 | 1026.1 |
| 20260502000022 | 66 | 288 | 5.0 | 13.0 | 0.00 | 0.00 | 0.00 | 28 | 1026.1 |
| 20260501235718 | 66 | 287 | 4.0 | 13.0 | 0.00 | 0.00 | 0.00 | 28 | 1026.1 |
| 20260501235414 | 66 | 333 | 4.0 | 8.0 | 0.00 | 0.00 | 0.00 | 28 | 1026.2 |
| 20260501235113 | 66 | 333 | 4.0 | 8.0 | 0.00 | 0.00 | 0.00 | 27 | 1026.2 |
| 20260501234804 | 66 | 334 | 4.0 | 8.0 | 0.00 | 0.00 | 0.00 | 27 | 1026.2 |
| 20260501234454 | 66 | 334 | 4.0 | 8.0 | 0.00 | 0.00 | 0.00 | 28 | 1026.1 |
| 20260501234146 | 66 | 338 | 4.0 | 8.0 | 0.00 | 0.00 | 0.00 | 29 | 1026.2 |
| 20260501233411 | 64 | 338 | 4.0 | 10.0 | 0.00 | 0.00 | 0.00 | 31 | 1026.2 |
| 20260501233104 | 64 | 338 | 4.0 | 10.0 | 0.00 | 0.00 | 0.00 | 31 | 1026.2 |
| 20260501232808 | 63 | 338 | 5.0 | 14.0 | 0.00 | 0.00 | 0.00 | 31 | 1026.3 |
| 20260501232502 | 63 | 338 | 6.0 | 14.0 | 0.00 | 0.00 | 0.00 | 31 | 1026.3 |
| 20260501232151 | 63 | 338 | 6.0 | 14.0 | 0.00 | 0.00 | 0.00 | 31 | 1026.3 |
| 20260501231844 | 63 | 338 | 5.0 | 18.0 | 0.00 | 0.00 | 0.00 | 31 | 1026.3 |
| 20260501231122 | 63 | 313 | 5.0 | 18.0 | 0.00 | 0.00 | 0.00 | 31 | 1026.3 |
| 20260501230816 | 63 | 313 | 6.0 | 18.0 | 0.00 | 0.00 | 0.00 | 30 | 1026.4 |
| 20260501230508 | 63 | 313 | 6.0 | 18.0 | 0.00 | 0.00 | 0.00 | 30 | 1026.3 |
| 20260501230202 | 64 | 313 | 5.0 | 18.0 | 0.00 | 0.00 | 0.00 | 29 | 1026.3 |
| 20260501225852 | 64 | 330 | 4.0 | 15.0 | 0.00 | 0.00 | 0.00 | 31 | 1026.1 |
| 20260501225549 | 64 | 310 | 4.0 | 10.0 | 0.00 | 0.00 | 0.00 | 29 | 1026.3 |
| 20260501224815 | 64 | 323 | 3.0 | 9.0 | 0.00 | 0.00 | 0.00 | 29 | 1026.3 |
| 20260501224519 | 64 | 323 | 3.0 | 9.0 | 0.00 | 0.00 | 0.00 | 29 | 1026.3 |
| 20260501224223 | 64 | 323 | 3.0 | 9.0 | 0.00 | 0.00 | 0.00 | 29 | 1026.3 |
| 20260501223924 | 64 | 325 | 4.0 | 9.0 | 0.00 | 0.00 | 0.00 | 30 | 1026.3 |
| 20260501223618 | 64 | 325 | 4.0 | 9.0 | 0.00 | 0.00 | 0.00 | 29 | 1026.4 |
| 20260501223315 | 64 | 325 | 4.0 | 10.0 | 0.00 | 0.00 | 0.00 | 29 | 1026.4 |
| 20260501223009 | 64 | 325 | 4.0 | 10.0 | 0.00 | 0.00 | 0.00 | 30 | 1026.4 |
| 20260501222656 | 64 | 327 | 4.0 | 10.0 | 0.00 | 0.00 | 0.00 | 30 | 1026.4 |
| 20260501222350 | 64 | 327 | 4.0 | 10.0 | 0.00 | 0.00 | 0.00 | 31 | 1026.4 |
| 20260501221155 | 62 | 325 | 3.0 | 8.0 | 0.00 | 0.00 | 0.00 | 32 | 1026.6 |
| 20260501220851 | 62 | 325 | 3.0 | 8.0 | 0.00 | 0.00 | 0.00 | 31 | 1026.7 |
| 20260501220539 | 62 | 325 | 3.0 | 8.0 | 0.00 | 0.00 | 0.00 | 32 | 1026.6 |
| 20260501215824 | 62 | 325 | 4.0 | 8.0 | 0.00 | 0.00 | 0.00 | 31 | 1026.8 |
| 20260501215515 | 63 | 325 | 4.0 | 8.0 | 0.00 | 0.00 | 0.00 | 32 | 1026.8 |
| 20260501215206 | 63 | 325 | 3.0 | 7.0 | 0.00 | 0.00 | 0.00 | 31 | 1026.9 |
| 20260501214852 | 63 | 325 | 3.0 | 9.0 | 0.00 | 0.00 | 0.00 | 31 | 1026.8 |
| 20260501214554 | 63 | 325 | 4.0 | 9.0 | 0.00 | 0.00 | 0.00 | 31 | 1026.9 |
| 20260501213818 | 64 | 325 | 5.0 | 9.0 | 0.00 | 0.00 | 0.00 | 32 | 1027.1 |
| 20260501213502 | 64 | 319 | 4.0 | 9.0 | 0.00 | 0.00 | 0.00 | 31 | 1027.1 |
| 20260501212736 | 62 | 321 | 3.0 | 8.0 | 0.00 | 0.00 | 0.00 | 33 | 1027.2 |
| 20260501212436 | 62 | 321 | 3.0 | 7.0 | 0.00 | 0.00 | 0.00 | 33 | 1027.4 |
| 20260501212123 | 62 | 321 | 2.0 | 6.0 | 0.00 | 0.00 | 0.00 | 34 | 1027.3 |
| 20260501211823 | 62 | 322 | 2.0 | 6.0 | 0.00 | 0.00 | 0.00 | 33 | 1027.5 |
| 20260501211510 | 62 | 322 | 2.0 | 6.0 | 0.00 | 0.00 | 0.00 | 33 | 1027.5 |
| 20260501210732 | 62 | 340 | 4.0 | 12.0 | 0.00 | 0.00 | 0.00 | 33 | 1027.6 |
| 20260501210434 | 62 | 319 | 3.0 | 12.0 | 0.00 | 0.00 | 0.00 | 33 | 1027.6 |
| 20260501210123 | 62 | 319 | 4.0 | 12.0 | 0.00 | 0.00 | 0.00 | 34 | 1027.7 |
| 20260501205824 | 63 | 319 | 4.0 | 12.0 | 0.00 | 0.00 | 0.00 | 34 | 1027.7 |
| 20260501205519 | 62 | 319 | 5.0 | 12.0 | 0.00 | 0.00 | 0.00 | 35 | 1027.7 |
| 20260501205222 | 62 | 324 | 4.0 | 10.0 | 0.00 | 0.00 | 0.00 | 34 | 1027.9 |
| 20260501204926 | 62 | 331 | 4.0 | 10.0 | 0.00 | 0.00 | 0.00 | 34 | 1027.9 |
| 20260501204616 | 62 | 331 | 4.0 | 10.0 | 0.00 | 0.00 | 0.00 | 34 | 1027.9 |
| 20260501204314 | 62 | 331 | 5.0 | 10.0 | 0.00 | 0.00 | 0.00 | 35 | 1027.9 |
| 20260501204016 | 62 | 331 | 5.0 | 10.0 | 0.00 | 0.00 | 0.00 | 34 | 1028.0 |
| 20260501203709 | 62 | 331 | 6.0 | 11.0 | 0.00 | 0.00 | 0.00 | 34 | 1028.0 |
| 20260501202510 | 63 | 302 | 6.0 | 11.0 | 0.00 | 0.00 | 0.00 | 33 | 1028.1 |
| 20260501202158 | 63 | 302 | 6.0 | 11.0 | 0.00 | 0.00 | 0.00 | 34 | 1028.3 |
| 20260501201858 | 63 | 298 | 6.0 | 11.0 | 0.00 | 0.00 | 0.00 | 33 | 1028.2 |
| 20260501201551 | 63 | 250 | 5.0 | 11.0 | 0.00 | 0.00 | 0.00 | 36 | 1028.3 |
| 20260501201239 | 63 | 242 | 5.0 | 11.0 | 0.00 | 0.00 | 0.00 | 33 | 1028.3 |
| 20260501200518 | 64 | 270 | 6.0 | 14.0 | 0.00 | 0.00 | 0.00 | 32 | 1028.5 |
| 20260501200212 | 64 | 344 | 6.0 | 14.0 | 0.00 | 0.00 | 0.00 | 33 | 1028.4 |
| 20260501195459 | 64 | 355 | 6.0 | 14.0 | 0.00 | 0.00 | 0.00 | 35 | 1028.4 |
| 20260501195158 | 63 | 322 | 6.0 | 14.0 | 0.00 | 0.00 | 0.00 | 34 | 1028.5 |
| 20260501194843 | 63 | 350 | 5.0 | 10.0 | 0.00 | 0.00 | 0.00 | 35 | 1028.5 |
| 20260501194540 | 62 | 355 | 4.0 | 7.0 | 0.00 | 0.00 | 0.00 | 35 | 1028.5 |
| 20260501194226 | 63 | 355 | 4.0 | 10.0 | 0.00 | 0.00 | 0.00 | 33 | 1028.5 |
| 20260501193450 | 64 | 5 | 5.0 | 10.0 | 0.00 | 0.00 | 0.00 | 34 | 1028.5 |
| 20260501193141 | 64 | 5 | 5.0 | 17.0 | 0.00 | 0.00 | 0.00 | 35 | 1028.5 |
| 20260501192845 | 64 | 5 | 5.0 | 17.0 | 0.00 | 0.00 | 0.00 | 35 | 1028.6 |
| 20260501192133 | 63 | 355 | 6.0 | 17.0 | 0.00 | 0.00 | 0.00 | 36 | 1028.7 |
| 20260501191833 | 63 | 355 | 5.0 | 17.0 | 0.00 | 0.00 | 0.00 | 36 | 1028.7 |
| 20260501191528 | 63 | 264 | 5.0 | 17.0 | 0.00 | 0.00 | 0.00 | 37 | 1028.7 |
| 20260501191216 | 62 | 322 | 5.0 | 11.0 | 0.00 | 0.00 | 0.00 | 38 | 1028.8 |
| 20260501190904 | 61 | 323 | 5.0 | 11.0 | 0.00 | 0.00 | 0.00 | 36 | 1028.8 |
| 20260501190559 | 61 | 324 | 4.0 | 11.0 | 0.00 | 0.00 | 0.00 | 39 | 1028.8 |
| 20260501190255 | 61 | 341 | 3.0 | 9.0 | 0.00 | 0.00 | 0.00 | 38 | 1028.9 |
| 20260501185951 | 61 | 342 | 4.0 | 8.0 | 0.00 | 0.00 | 0.00 | 38 | 1028.9 |
| 20260501185651 | 62 | 342 | 3.0 | 8.0 | 0.00 | 0.00 | 0.00 | 38 | 1028.9 |
| 20260501185350 | 62 | 343 | 3.0 | 8.0 | 0.00 | 0.00 | 0.00 | 38 | 1028.9 |
| 20260501184632 | 60 | 343 | 3.0 | 10.0 | 0.00 | 0.00 | 0.00 | 40 | 1029.0 |
| 20260501184320 | 59 | 343 | 4.0 | 10.0 | 0.00 | 0.00 | 0.00 | 40 | 1029.1 |
| 20260501184014 | 59 | 343 | 4.0 | 10.0 | 0.00 | 0.00 | 0.00 | 39 | 1029.1 |
| 20260501183706 | 60 | 343 | 4.0 | 10.0 | 0.00 | 0.00 | 0.00 | 39 | 1029.1 |
| 20260501183403 | 60 | 343 | 3.0 | 10.0 | 0.00 | 0.00 | 0.00 | 39 | 1029.2 |
| 20260501183102 | 60 | 347 | 3.0 | 11.0 | 0.00 | 0.00 | 0.00 | 39 | 1029.2 |
| 20260501182756 | 61 | 347 | 3.0 | 11.0 | 0.00 | 0.00 | 0.00 | 38 | 1029.2 |
| 20260501182457 | 61 | 347 | 3.0 | 11.0 | 0.00 | 0.00 | 0.00 | 38 | 1029.4 |
| 20260501182159 | 61 | 346 | 4.0 | 11.0 | 0.00 | 0.00 | 0.00 | 38 | 1029.4 |
| 20260501181850 | 61 | 348 | 4.0 | 11.0 | 0.00 | 0.00 | 0.00 | 38 | 1029.4 |
| 20260501181546 | 61 | 348 | 5.0 | 11.0 | 0.00 | 0.00 | 0.00 | 37 | 1029.5 |
| 20260501180806 | 63 | 17 | 6.0 | 9.0 | 0.00 | 0.00 | 0.00 | 38 | 1029.6 |
| 20260501180504 | 62 | 17 | 6.0 | 9.0 | 0.00 | 0.00 | 0.00 | 40 | 1029.6 |
| 20260501180201 | 62 | 18 | 5.0 | 9.0 | 0.00 | 0.00 | 0.00 | 37 | 1029.7 |
| 20260501175426 | 63 | 25 | 4.0 | 8.0 | 0.00 | 0.00 | 0.00 | 35 | 1029.7 |
| 20260501174244 | 62 | 43 | 4.0 | 12.0 | 0.00 | 0.00 | 0.00 | 37 | 1029.8 |
| 20260501173934 | 61 | 43 | 5.0 | 12.0 | 0.00 | 0.00 | 0.00 | 39 | 1029.8 |
| 20260501173623 | 61 | 5 | 6.0 | 12.0 | 0.00 | 0.00 | 0.00 | 39 | 1029.8 |
| 20260501173322 | 60 | 0 | 5.0 | 12.0 | 0.00 | 0.00 | 0.00 | 39 | 1029.9 |